Location: Milton Keynes
(52.0316°N, 0.7531°W)
Time: 09:57:59
(UTC+00:00)

Envisat - Visible Passes

Search period start: 09 November 2025 00:00
Search period end: 19 November 2025 00:00
Orbit: 761 x 763 km, 98.4° (Epoch: 08 November)

Date Brightness Start Highest point End Pass type
(mag) Time Alt. Az. Time Alt. Az. Time Alt. Az.
09 Nov 5.7 02:55:02 10° NNE 02:55:30 13° NNE 02:55:30 13° NNE visible
09 Nov 5.1 04:34:48 10° N 04:35:37 13° NNW 04:35:37 13° NNW visible
10 Nov 5.2 03:56:31 10° N 03:57:19 14° N 03:57:19 14° N visible
11 Nov 5.5 03:18:31 10° NNE 03:19:01 13° N 03:19:01 13° N visible
11 Nov 5.2 04:58:53 10° NNW 04:59:08 11° NNW 04:59:08 11° NNW visible
12 Nov 5.2 04:20:16 10° N 04:20:50 13° N 04:20:50 13° N visible
13 Nov 5.5 03:42:05 10° N 03:42:32 12° N 03:42:32 12° N visible
14 Nov 5.8 03:04:11 10° NNE 03:04:14 10° NNE 03:04:14 10° NNE visible
14 Nov 5.3 04:44:10 10° NNW 04:44:21 11° NNW 04:44:21 11° NNW visible
15 Nov 5.4 04:05:46 10° N 04:06:04 11° N 04:06:04 11° N visible
16 Nov 5.7 03:27:42 10° N 03:27:45 10° N 03:27:45 10° N visible
17 Nov 5.4 04:29:34 10° N 04:29:35 10° N 04:29:35 10° N visible
